Location: Brachbach
(49.1847°N, 9.7240°E)
Time: 05:10:05
(UTC+00:00)

PCSat - Pass Details

Date: 18 March 2026
Orbit: 780 x 790 km, 67.1° (Epoch: 13 April)

Event Time Altitude Azimuth Distance (km) Brightness Sun altitude
Exits shadow 02:16:28 - 320° (NW) 3,124 12.7 -30.0°
Reaches altitude 10° 02:19:54 10° 346° (NNW) 2,365 12.3 -29.6°
Maximum altitude 02:22:10 13° 11° (N) 2,188 12.4 -29.3°
Drops below altitude 10° 02:24:28 10° 36° (NE) 2,364 12.9 -29.0°
Sets 02:28:29 0° 66° (ENE) 3,291 14.0 -28.5°
